Location: La Fredeussais
(48.1780°N, 1.3980°W)
Time: 18:32:20
(UTC+00:00)

Cosmos 1503 Rocket - Pass Details

Date: 09 May 2021
Orbit: 752 x 791 km, 74.0° (Epoch: 15 June)

Event Time Altitude Azimuth Distance (km) Brightness Sun altitude
Rises 20:12:55 0° 179° (S) 3,188 6.8 -6.8°
Reaches altitude 10° 20:15:22 10° 173° (S) 2,270 6.0 -7.1°
Maximum altitude 20:20:10 41° 104° (ESE) 1,087 4.4 -7.8°
Drops below altitude 10° 20:25:02 10° 35° (NE) 2,301 6.5 -8.4°
Sets 20:27:31 0° 29° (NNE) 3,237 7.4 -8.7°
